User: anonymous   Login
Location: Peebles
(55.6412°N, 3.1714°W)
Time: 09:27:42
(UTC+00:00)
Language:

deb Kosmos-2123 - Orbit

View from above orbital plane
View from above orbital plane
View from above satellite
View from above satellite

Ground track
Ground track

The orbit data is extracted from the following two-line orbital elements,

1 21091U 91007C   23344.26326036  .00000246  00000-0  22063-3 0  9992
2 21091  82.9310 252.0319 0027271 163.8558 358.7140 13.80298680652180
Epoch (UTC): 10 December 2023 06:19:05
Eccentricity: 0.0027271
inclination: 82.9310°
perigee height: 943 km
apogee height: 983 km
right ascension of ascending node: 252.0319°
argument of perigee: 163.8558°
revolutions per day: 13.80298680
mean anomaly at epoch: 358.7140°
orbit number at epoch: 65218

The dashed part of the orbit path shows where the satellite is in the earth's shadow,  

DLR